Flag for Saudi Arabia Weather past 2 weeks in Makkah, Saudi Arabia

Now
91 °F

Sunny.


Feels Like: 100 °F
Forecast: 82 / 109 °F
Wind: 7 mph from Southwest

Location: Jeddah King Abdul Aziz International Airport

Current Time: Jul 6, 2015 at 8:50:32 AM

Latest Report: Jul 6, 2015 at 8:00 AM


Visibility: 10 mi

Pressure: 29.68 "Hg

Humidity: 56%

Dew point: 73 °F

Location of MakkahLocation

Historic Weather in Makkah — Graph

°F

Makkah temperature yesterday

Maximum temperature yesterday: 97 °F (at 3:00 PM)
Minimum temperature yesterday: 84 °F (at 3:00 AM)
Average temperature yesterday: 90 °F

Past Weeks' High & Low Weather Summary

 TemperatureHumidityPressure
High104 °F (Jun 29, 1:00 PM)89% (Jun 24, 6:00 AM)29.80 "Hg (Jun 24, 6:00 AM)
Low73 °F (Jun 23, 6:00 AM)11% (Jun 28, 12:00 PM)29.59 "Hg (Jul 5, 9:00 PM)
Average88 °F52%29.72 "Hg
* Reported Jun 21 7:00 AM — Jul 6 7:00 AM, Makkah, Weather by CustomWeather, © 2015

Note: Actual official high and low records may vary slightly from our data, if they occured in-between our weather recording intervals... More about our weather records

Advertising

Makkah weather history for previous 24 hours

 ConditionsComfort  
Time TempWeatherWind HumidityBarometerVisibility
7:00 AM
Mon, Jul 6
90 °FPassing clouds.7 mph59%29.68 "HgN/A
6:00 AM90 °FScattered clouds.7 mph55%29.65 "HgN/A
5:00 AM90 °FPassing clouds.9 mph55%29.65 "HgN/A
4:00 AM90 °FClear.No wind49%29.62 "Hg10 mi
3:00 AM90 °FClear.No wind46%29.62 "Hg10 mi
2:00 AM90 °FClear.7 mph46%29.65 "Hg10 mi
1:00 AM90 °FClear.7 mph46%29.65 "Hg10 mi
12:00 AM90 °FPassing clouds.8 mph46%29.68 "HgN/A
11:00 PM
Sun, Jul 5
91 °FPassing clouds.12 mph46%29.68 "HgN/A
10:00 PM91 °FPassing clouds.9 mph46%29.68 "HgN/A
9:00 PM93 °FSandstorm.29 mph44%29.59 "Hg1 mi
8:00 PM93 °FClear.9 mph49%29.68 "Hg10 mi
7:00 PM93 °FSunny.18 mph47%29.65 "Hg10 mi
6:00 PM95 °FSunny.16 mph44%29.65 "Hg10 mi
5:00 PM97 °FSunny.12 mph47%29.62 "Hg10 mi
4:00 PM95 °FSunny.14 mph53%29.62 "Hg10 mi
3:00 PM97 °FSunny.12 mph50%29.65 "Hg10 mi
2:00 PM95 °FSunny.12 mph56%29.65 "Hg10 mi
1:00 PM95 °FSunny.14 mph56%29.68 "Hg10 mi
12:00 PM93 °FSunny.5 mph59%29.68 "Hg10 mi
11:00 AM91 °FSunny.9 mph63%29.68 "Hg10 mi
10:00 AM90 °FScattered clouds.12 mph67%29.71 "HgN/A
9:00 AM90 °FScattered clouds.12 mph63%29.71 "HgN/A
8:00 AM86 °FScattered clouds.No wind66%29.68 "HgN/A
Weather by CustomWeather, © 2015

See weather overviewHow to use our weather pages